Home > Weather > Quito > Past weeks

Flag for Ecuador Weather for the Past 2 Weeks in Quito, Ecuador

Now
52 °F

Broken clouds.


Feels Like: 51 °F
Forecast: 49 / 67 °F
Wind: 5 mph from South

Location: Latacunga Airport

Current Time: Feb 8, 2016 at 7:49:52 AM

Latest Report: Feb 8, 2016 at 7:00 AM


Visibility: 5 mi

Pressure: 30.39 "Hg (21.63 "Hg at 2826m altitude)

Humidity: 100%

Dew point: 52 °F

Location of QuitoLocation

Historic Weather in Quito — Graph

°F

Quito Temperature Yesterday

Maximum temperature yesterday: 64 °F (at 12:00 PM)
Minimum temperature yesterday: 54 °F (at 12:00 AM)
Average temperature yesterday: 58 °F

High & Low Weather Summary for the Past Weeks

 TemperatureHumidityPressure
High75 °F (Jan 27, 3:00 PM)100% (Jan 24, 6:00 AM)30.51 "Hg (Jan 24, 6:00 AM)
Low37 °F (Jan 28, 6:00 AM)25% (Jan 28, 1:00 PM)30.24 "Hg (Jan 27, 4:00 PM)
Average57 °F82%30.40 "Hg
* Reported Jan 24 6:00 AM — Feb 8 6:00 AM, Quito, Weather by CustomWeather, © 2016

Note: Actual official high and low records may vary slightly from our data, if they occured in-between our weather recording intervals... More about our weather records

Advertising

Quito Weather History for the Previous 24 Hours

 ConditionsComfort  
Time TempWeatherWind HumidityBarometerVisibility
6:00 AM
Mon, Feb 8
52 °FPassing clouds.6 mph100%30.39 "HgN/A
5:00 AM52 °FPassing clouds.6 mph100%30.36 "HgN/A
4:00 AM54 °FPassing clouds.7 mph100%30.36 "HgN/A
3:00 AM54 °FPassing clouds.5 mph100%30.36 "HgN/A
2:00 AM54 °FPassing clouds.9 mph100%30.39 "HgN/A
1:00 AM54 °FPassing clouds.8 mph100%30.42 "HgN/A
12:00 AM54 °FPassing clouds.7 mph100%30.42 "HgN/A
11:00 PM
Sun, Feb 7
54 °FPassing clouds.15 mph100%30.42 "HgN/A
10:00 PM55 °FPassing clouds.13 mph94%30.42 "HgN/A
9:00 PM55 °FPassing clouds.15 mph100%30.39 "HgN/A
8:00 PM57 °FPassing clouds.14 mph94%30.39 "HgN/A
7:00 PM57 °FPassing clouds.17 mph88%30.36 "HgN/A
6:00 PM59 °FScattered clouds.20 mph82%30.30 "HgN/A
5:00 PM61 °FScattered clouds.23 mph77%30.30 "HgN/A
4:00 PM61 °FPartly sunny.21 mph77%30.30 "HgN/A
3:00 PM64 °FPartly sunny.23 mph64%30.33 "HgN/A
2:00 PM63 °FPartly sunny.21 mph68%30.36 "HgN/A
1:00 PM64 °FPartly sunny.16 mph64%30.36 "HgN/A
12:00 PM64 °FPartly sunny.18 mph64%30.39 "HgN/A
11:00 AM63 °FPartly sunny.14 mph68%30.42 "HgN/A
10:00 AM59 °FPartly sunny.16 mph82%30.45 "HgN/A
9:00 AM57 °FPartly sunny.12 mph88%30.45 "HgN/A
7:00 AM54 °FPartly sunny.15 mph100%30.42 "HgN/A
Weather by CustomWeather, © 2016

See weather overviewHow to use our weather pages